Home > Weather > Jilin > Past weeks

Flag for China Weather for the Past 2 Weeks in Jilin, Jilin, China

Now
50 °F

Passing clouds.


Feels Like: 47 °F
Forecast: 45 / 73 °F
Wind: 8 mph from Southeast

Location: Changchun Airport

Current Time: May 1, 2016 at 6:54:58 AM

Latest Report: May 1, 2016 at 6:00 AM


Visibility: N/A

Pressure: 29.62 "Hg

Humidity: 76%

Dew Point: 43 °F

Location of JilinLocation

Historic Weather in Jilin — Graph

°F

Jilin Temperature Yesterday

Maximum temperature yesterday: 57 °F (at 5:00 PM)
Minimum temperature yesterday: 46 °F (at 6:00 AM)
Average temperature yesterday: 50 °F

High & Low Weather Summary for the Past Weeks

 TemperatureHumidityPressure
High72 °F (Apr 21, 12:00 PM)93% (Apr 17, 12:00 AM)30.21 "Hg (Apr 17, 12:00 AM)
Low34 °F (Apr 24, 3:00 AM)11% (Apr 24, 2:00 PM)29.42 "Hg (Apr 21, 12:00 PM)
Average51 °F45%29.82 "Hg
* Reported Apr 16 5:00 AM — May 1 5:00 AM, Jilin, Weather by CustomWeather, © 2016

Note: Actual official high and low records may vary slightly from our data, if they occured in-between our weather recording intervals... More about our weather records

Advertising

Jilin Weather History for the Previous 24 Hours

Scroll right to see more
 ConditionsComfort  
Time TempWeatherWind HumidityBarometerVisibility
5:00 AM
Sun, May 1
48 °FScattered clouds.10 mph76%29.62 "HgN/A
4:00 AM48 °FPassing clouds.8 mph82%29.65 "HgN/A
3:00 AM46 °FClear.8 mph82%29.68 "Hg10 mi
2:00 AM46 °FClear.8 mph87%29.74 "Hg10 mi
1:00 AM45 °FClear.6 mph87%29.71 "Hg10 mi
12:00 AM45 °FPassing clouds.3 mph87%29.74 "HgN/A
11:00 PM
Sat, Apr 30
46 °FClear.6 mph82%29.74 "Hg10 mi
10:00 PM46 °FPassing clouds.3 mph82%29.74 "HgN/A
9:00 PM48 °FClear.6 mph76%29.74 "Hg10 mi
8:00 PM50 °FPassing clouds.6 mph71%29.74 "HgN/A
7:00 PM52 °FPassing clouds.3 mph67%29.71 "HgN/A
6:00 PM55 °FPassing clouds.8 mph63%29.71 "HgN/A
5:00 PM57 °FScattered clouds.6 mph59%29.71 "HgN/A
4:00 PM55 °FPartly sunny.3 mph59%29.71 "HgN/A
3:00 PM55 °FPartly sunny.3 mph63%29.68 "HgN/A
2:00 PM54 °FPartly sunny.3 mph67%29.71 "HgN/A
1:00 PM52 °FPartly sunny.3 mph72%29.71 "HgN/A
12:00 PM52 °FPartly sunny.6 mph72%29.71 "HgN/A
11:00 AM52 °FPartly sunny.8 mph77%29.71 "HgN/A
10:00 AM50 °FPartly sunny.8 mph76%29.71 "HgN/A
9:00 AM48 °FPartly sunny.3 mph82%29.71 "HgN/A
8:00 AM48 °FPartly sunny.3 mph82%29.71 "Hg4 mi
7:00 AM48 °FPartly sunny.6 mph82%29.68 "HgN/A
6:00 AM46 °FPartly sunny.6 mph87%29.68 "HgN/A
Weather by CustomWeather, © 2016

See weather overviewHow to use our weather pages